[[{"header":{"parameterUnit":"m.s-1","parameterCategory":1,"la1":30.2991,"la2":30.254,"lo1":-89.0895,"lo2":-89.0444,"dy":0.0017,"dx":0.0017,"nx":28,"ny":28,"refTime":"2024-08-13T09:00:00:Z","depth":0,"parameterNumber":2,"parameterNumberName":"U-component_of_WINDS"},"data":[0,0,0,0,0,0,0,0,0,0,0,0,0,0,0,0,0,0,0,0,0,0,0,0,0,0,0,0,0,0,0,0,0,0,0,0,0,0,0,0,0,0,0,0,0,0,0,0,0,0,0,0,0,0,0,0,0,0,2.0837,2.0838,0,2.092,2.0921,2.0922,2.0926,2.0925,2.0924,2.0923,2.1011,2.1015,2.1018,0,0,0,0,0,0,0,0,0,0,0,0,0,2.0684,2.0687,2.0837,2.0838,2.0839,2.092,2.0921,2.0922,2.0926,2.0925,2.0923,2.0922,2.101,2.1014,2.1018,0,0,0,0,0,0,0,0,0,0,0,0,0,2.0758,2.0688,2.0837,2.085,2.0852,2.092,2.0921,2.0923,2.0926,2.0925,2.0923,2.0922,2.1009,2.1014,2.1019,2.1079,0,0,2.1034,2.1036,0,0,0,0,0,0,0,0,2.0753,2.0763,2.0847,2.085,2.0852,2.0911,2.09,2.0975,2.0926,2.0898,2.0923,2.0921,2.0979,2.0987,2.1006,2.1083,2.1087,2.1034,2.1037,2.1039,2.1041,0,0,0,0,0,0,0,2.0748,2.076,2.087,2.0849,2.0851,2.0854,2.0862,2.0914,2.0946,2.0901,2.0901,2.0911,2.098,2.1001,2.1008,2.1088,2.1034,2.1038,2.1041,2.1043,2.1222,2.1224,0,0,0,0,0,0,2.074,2.0755,2.0867,2.0872,2.0798,2.0858,2.0867,2.0894,2.0946,2.0952,2.0912,2.0911,2.0993,2.1002,2.1011,2.1086,2.1039,2.1044,2.1047,2.122,2.1223,2.1225,0,0,0,0,0,0,2.0737,2.075,2.0864,2.0814,2.0829,2.0862,2.0891,2.0896,2.0917,2.0954,2.096,2.0927,2.0992,2.1004,2.1062,2.109,2.1046,2.1051,2.1218,2.1221,2.1224,2.1237,0,0,0,0,0,0,2.0732,2.0749,2.0771,2.0815,2.0831,2.0913,2.0893,2.0899,2.0925,2.0924,2.097,2.0976,2.0992,2.1055,2.1067,2.1096,2.1054,2.1216,2.122,2.1223,2.1234,2.124,2.1245,0,0,0,0,0,2.0727,2.0772,2.0772,2.0786,2.086,2.0914,2.0924,2.0941,2.0927,2.095,2.0975,2.0975,2.1085,2.1061,2.1075,2.1105,2.1214,2.1219,2.1222,2.1232,2.1239,2.1244,0,0,0,0,0,0,2.0731,2.0778,2.0779,2.0838,2.0872,2.0915,2.0944,2.0947,2.0986,2.0984,2.1004,2.1014,2.1073,2.1095,2.1068,2.1167,2.1148,2.1155,2.1151,2.1157,2.1162,2.1156,2.1059,0,0,0,0,0,2.0739,2.0778,2.0817,2.0867,2.0883,2.0911,2.0935,2.0946,2.0982,2.0996,2.1025,2.1061,2.1104,2.1132,2.1173,2.1238,2.1249,2.1265,2.1271,2.1275,2.128,2.1318,2.1326,2.1238,2.1238,2.1238,0,0,2.0756,2.0786,2.081,2.0868,2.0895,2.0937,2.0923,2.0967,2.0999,2.1003,2.106,2.1083,2.1125,2.1187,2.1216,2.1207,2.1307,2.128,2.1283,2.1286,2.1323,2.1331,2.1339,2.124,2.124,2.124,0,0,2.0807,2.0834,2.0878,2.0906,2.0948,2.0966,2.0977,2.1019,2.1034,2.1092,2.1096,2.1135,2.1208,2.1238,2.1263,2.1328,2.133,2.1341,2.1368,2.1404,2.1411,2.1417,2.1442,2.145,2.1347,2.1347,2.1347,0,2.0823,2.0885,2.0901,2.0946,2.0972,2.0978,2.1024,2.1051,2.1104,2.1123,2.1112,2.1205,2.1234,2.1303,2.1319,2.1339,2.1353,2.1336,2.1409,2.1415,2.1421,2.1445,2.1454,2.1348,2.1348,2.1348,2.1348,0,2.0903,2.0946,2.0977,2.1028,2.1058,2.1103,2.1128,2.1156,2.1164,2.1184,2.1244,2.1279,2.1328,2.1345,2.1353,2.1417,2.141,2.1404,2.1385,2.143,2.1453,2.1462,2.135,2.1349,2.1349,2.1349,0,0,2.0958,2.1019,2.103,2.1054,2.1101,2.1135,2.1182,2.1229,2.1254,2.1291,2.1332,2.1394,2.1389,2.1417,2.1429,2.1461,2.1512,2.1451,2.1452,2.1462,2.1586,2.159,2.16,2.1513,2.1515,2.1517,2.1582,0,2.1016,2.1097,2.1114,2.1185,2.1226,2.1233,2.1274,2.1308,2.1328,2.1367,2.139,2.1435,2.1424,2.1441,2.1473,2.1499,2.1537,2.1494,2.1553,2.1555,2.1542,2.1612,2.1617,2.1677,2.1591,2.1593,2.1594,0,2.1093,2.1132,2.1207,2.125,2.1268,2.1304,2.135,2.1386,2.1426,2.1439,2.1471,2.148,2.1531,2.151,2.158,2.1551,2.1576,2.1593,2.1595,2.1602,2.1577,2.1621,2.1697,2.1706,2.1608,2.1607,2.1606,0,2.1128,2.1199,2.1253,2.1273,2.1324,2.135,2.1373,2.1411,2.1439,2.148,2.1498,2.1545,2.157,2.1606,2.1629,2.1611,2.1698,2.1678,2.1711,2.1711,2.1729,2.1728,2.1811,2.1745,2.1745,2.1745,2.1744,0,2.119,2.1236,2.1269,2.1303,2.1355,2.1375,2.1427,2.1449,2.1484,2.1523,2.1532,2.1569,2.1596,2.1637,2.1655,2.1711,2.1723,2.1736,2.174,2.1735,2.1733,2.1752,2.1748,2.1747,2.1746,2.1746,2.1746,0,2.1237,2.1261,2.1321,2.1365,2.1377,2.1414,2.1452,2.1486,2.1507,2.1557,2.157,2.1603,2.1652,2.1678,2.1739,2.1752,2.1816,2.1817,2.1802,2.1804,2.1836,2.1832,2.1933,2.1948,2.1872,2.1873,2.1873,0,2.1275,2.1311,2.1359,2.1386,2.1409,2.1451,2.148,2.1502,2.1532,2.1581,2.1609,2.1658,2.1699,2.1778,2.1809,2.1856,2.1859,2.1892,2.1867,2.1861,2.1861,2.1859,2.1863,2.1896,2.1897,2.1897,2.1898,0,2.1342,2.1352,2.1392,2.1438,2.1472,2.1509,2.1545,2.1567,2.1595,2.1628,2.1678,2.171,2.1773,2.1822,2.1873,2.1898,2.1903,2.1905,2.1916,2.1911,2.1901,2.1908,2.1814,2.1903,2.1902,2.1902,2.1902,2.1902,2.1386,2.1418,2.1457,2.1503,2.1533,2.1567,2.1601,2.1627,2.1668,2.1721,2.1731,2.1785,2.1826,2.1894,2.1921,2.1964,2.1957,2.1972,2.1976,2.1979,2.1981,2.1894,2.1973,2.1973,2.1973,2.1973,2.1973,0,2.1453,2.1479,2.1521,2.1571,2.1608,2.1609,2.165,2.168,2.1727,2.1764,2.1804,2.1862,2.1911,2.1946,2.1996,2.2024,2.2028,2.2036,2.2035,2.2041,2.1983,2.197,2.2032,2.2032,2.2032,2.2032,2.2032,2.2032,2.1492,2.1548,2.1563,2.1634,2.166,2.1711,2.1735,2.1767,2.1797,2.1862,2.1902,2.1924,2.1961,2.2014,2.2059,2.2069,2.2087,2.2096,2.2105,2.2051,2.2045,2.2039,2.2026,2.2099,2.2099,2.2159,2.2159,2.216]},{"header":{"parameterUnit":"m.s-1","parameterCategory":1,"la1":30.2991,"la2":30.254,"lo1":-89.0895,"lo2":-89.0444,"dy":0.0017,"dx":0.0017,"nx":28,"ny":28,"refTime":"2024-08-13T09:00:00:Z","depth":0,"parameterNumber":3,"parameterNumberName":"V-component_of_WINDS"},"data":[0,0,0,0,0,0,0,0,0,0,0,0,0,0,0,0,0,0,0,0,0,0,0,0,0,0,0,0,0,0,0,0,0,0,0,0,0,0,0,0,0,0,0,0,0,0,0,0,0,0,0,0,0,0,0,0,0,0,-0.7076,-0.7076,0,-0.7107,-0.7107,-0.7108,-0.7133,-0.7133,-0.7134,-0.7134,-0.7165,-0.7165,-0.7166,0,0,0,0,0,0,0,0,0,0,0,0,0,-0.7039,-0.7039,-0.7076,-0.7076,-0.7077,-0.7107,-0.7107,-0.7108,-0.7133,-0.7133,-0.7134,-0.7134,-0.7164,-0.7165,-0.7166,0,0,0,0,0,0,0,0,0,0,0,0,0,-0.7061,-0.704,-0.7076,-0.7093,-0.7095,-0.7107,-0.7107,-0.7108,-0.7133,-0.7133,-0.7134,-0.7134,-0.7164,-0.7165,-0.7166,-0.7163,0,0,-0.7169,-0.7169,0,0,0,0,0,0,0,0,-0.706,-0.7062,-0.709,-0.7092,-0.7094,-0.7117,-0.7106,-0.7126,-0.7133,-0.7118,-0.7134,-0.7134,-0.7148,-0.715,-0.7155,-0.7165,-0.7166,-0.7169,-0.7169,-0.7169,-0.717,0,0,0,0,0,0,0,-0.7058,-0.7061,-0.7088,-0.7091,-0.7093,-0.7099,-0.7103,-0.711,-0.7131,-0.712,-0.7122,-0.7125,-0.7149,-0.7154,-0.7156,-0.7166,-0.7169,-0.7169,-0.717,-0.717,-0.7177,-0.7177,0,0,0,0,0,0,-0.7054,-0.706,-0.7087,-0.7089,-0.7077,-0.71,-0.7104,-0.7109,-0.7131,-0.7134,-0.7125,-0.7126,-0.7153,-0.7155,-0.7157,-0.7157,-0.7169,-0.717,-0.7171,-0.7177,-0.7177,-0.7176,0,0,0,0,0,0,-0.7053,-0.7056,-0.7086,-0.7075,-0.7079,-0.71,-0.7106,-0.7109,-0.7115,-0.7134,-0.7138,-0.7126,-0.7153,-0.7156,-0.7162,-0.7158,-0.7171,-0.7171,-0.7178,-0.7177,-0.7177,-0.7155,0,0,0,0,0,0,-0.7052,-0.7056,-0.7055,-0.7075,-0.708,-0.709,-0.7105,-0.711,-0.7116,-0.7118,-0.7137,-0.714,-0.7154,-0.7161,-0.7163,-0.716,-0.7172,-0.7178,-0.7177,-0.7177,-0.7156,-0.7154,-0.7152,0,0,0,0,0,-0.705,-0.7047,-0.7054,-0.7058,-0.7079,-0.709,-0.7093,-0.7109,-0.7116,-0.7115,-0.7128,-0.714,-0.7158,-0.7161,-0.7164,-0.7161,-0.7178,-0.7178,-0.7177,-0.7157,-0.7155,-0.7152,0,0,0,0,0,0,-0.7025,-0.705,-0.7058,-0.7061,-0.7073,-0.7094,-0.7094,-0.7105,-0.7115,-0.7116,-0.7136,-0.7139,-0.7144,-0.7153,-0.7155,-0.716,-0.717,-0.717,-0.7154,-0.7152,-0.715,-0.7148,-0.7173,0,0,0,0,0,-0.702,-0.7027,-0.7048,-0.7048,-0.7054,-0.7073,-0.7078,-0.7089,-0.7102,-0.7108,-0.7121,-0.7133,-0.7142,-0.7147,-0.7156,-0.7158,-0.7163,-0.7157,-0.7155,-0.7153,-0.7153,-0.7156,-0.7154,-0.7174,-0.7174,-0.7174,0,0,-0.7009,-0.7024,-0.7026,-0.7044,-0.7054,-0.7061,-0.7077,-0.7083,-0.7088,-0.7108,-0.7115,-0.7125,-0.714,-0.7144,-0.7147,-0.7152,-0.7149,-0.7152,-0.7151,-0.7151,-0.7155,-0.7153,-0.7151,-0.7173,-0.7174,-0.7174,0,0,-0.6993,-0.7004,-0.7007,-0.7018,-0.7034,-0.7047,-0.7047,-0.7066,-0.7074,-0.7081,-0.7097,-0.7104,-0.7118,-0.7129,-0.7136,-0.7125,-0.7137,-0.7128,-0.7117,-0.7119,-0.7118,-0.7116,-0.7114,-0.7113,-0.7127,-0.7127,-0.7127,0,-0.6978,-0.6989,-0.7007,-0.7012,-0.702,-0.7039,-0.7042,-0.7051,-0.7069,-0.7074,-0.708,-0.71,-0.7111,-0.7118,-0.7116,-0.7121,-0.7123,-0.7126,-0.7117,-0.7115,-0.7115,-0.7112,-0.7111,-0.7126,-0.7126,-0.7126,-0.7126,0,-0.697,-0.6977,-0.6977,-0.6995,-0.7003,-0.7007,-0.7026,-0.7031,-0.7042,-0.7054,-0.7062,-0.7076,-0.7089,-0.7092,-0.7102,-0.7101,-0.7104,-0.7113,-0.7123,-0.7111,-0.7109,-0.7109,-0.7124,-0.7125,-0.7125,-0.7125,0,0,-0.6939,-0.6967,-0.6967,-0.6976,-0.6996,-0.7002,-0.7008,-0.7021,-0.7026,-0.7038,-0.7043,-0.7056,-0.7065,-0.7073,-0.7085,-0.7087,-0.7079,-0.7096,-0.7096,-0.7093,-0.708,-0.7074,-0.7073,-0.7087,-0.7087,-0.7087,-0.708,0,-0.6927,-0.6938,-0.6955,-0.6961,-0.6968,-0.6987,-0.6992,-0.7005,-0.7017,-0.7025,-0.7038,-0.7047,-0.7057,-0.7063,-0.7066,-0.7079,-0.7077,-0.708,-0.7093,-0.7093,-0.7089,-0.7072,-0.7065,-0.7058,-0.7079,-0.7079,-0.7079,0,-0.6914,-0.6926,-0.6933,-0.6954,-0.6958,-0.6962,-0.6976,-0.6984,-0.6999,-0.7008,-0.7018,-0.7031,-0.7038,-0.7047,-0.7058,-0.706,-0.7066,-0.7074,-0.7074,-0.7076,-0.7085,-0.7074,-0.7056,-0.7055,-0.7078,-0.7078,-0.7078,0,-0.6892,-0.691,-0.6917,-0.6924,-0.6948,-0.6951,-0.6961,-0.6976,-0.6984,-0.6996,-0.7001,-0.7014,-0.7021,-0.7031,-0.7048,-0.7053,-0.7057,-0.7067,-0.7065,-0.7065,-0.7066,-0.7065,-0.7048,-0.7068,-0.7068,-0.7068,-0.7068,0,-0.6878,-0.6881,-0.6908,-0.6912,-0.6917,-0.6936,-0.6941,-0.6952,-0.6966,-0.6974,-0.699,-0.6997,-0.7018,-0.7027,-0.704,-0.7048,-0.705,-0.7058,-0.7061,-0.7057,-0.7056,-0.7062,-0.7063,-0.7068,-0.7068,-0.7068,-0.7068,0,-0.6854,-0.6871,-0.688,-0.6903,-0.6908,-0.6911,-0.6931,-0.6936,-0.6949,-0.6958,-0.6961,-0.6982,-0.6993,-0.7011,-0.7027,-0.7036,-0.7042,-0.7047,-0.7037,-0.7039,-0.7037,-0.7037,-0.7023,-0.7022,-0.7042,-0.7042,-0.7041,0,-0.6844,-0.6847,-0.687,-0.6877,-0.6886,-0.6896,-0.6904,-0.6923,-0.6931,-0.695,-0.6953,-0.6966,-0.6977,-0.6995,-0.7012,-0.7025,-0.7031,-0.7025,-0.7033,-0.7029,-0.7032,-0.7032,-0.7033,-0.7023,-0.7023,-0.7023,-0.7023,0,-0.6824,-0.6833,-0.6844,-0.6859,-0.6868,-0.688,-0.6893,-0.6897,-0.6919,-0.6927,-0.694,-0.6949,-0.6966,-0.6979,-0.6995,-0.7006,-0.7018,-0.702,-0.702,-0.7016,-0.701,-0.7014,-0.7033,-0.702,-0.702,-0.7021,-0.7021,-0.7021,-0.6808,-0.6813,-0.683,-0.6842,-0.6854,-0.6866,-0.6872,-0.6887,-0.6898,-0.6914,-0.6924,-0.6936,-0.6953,-0.6975,-0.6985,-0.6996,-0.7001,-0.7001,-0.7001,-0.7001,-0.7,-0.7008,-0.6998,-0.6998,-0.6998,-0.6999,-0.6999,0,-0.6791,-0.6803,-0.6814,-0.6832,-0.6842,-0.6853,-0.6868,-0.6875,-0.6886,-0.69,-0.6912,-0.6927,-0.694,-0.6958,-0.6972,-0.6977,-0.6983,-0.698,-0.698,-0.6983,-0.6994,-0.6993,-0.6975,-0.6975,-0.6975,-0.6975,-0.6975,-0.6975,-0.6783,-0.6791,-0.6802,-0.6817,-0.683,-0.6842,-0.685,-0.6862,-0.6873,-0.6889,-0.6901,-0.6912,-0.6929,-0.6945,-0.6957,-0.6962,-0.6967,-0.6963,-0.697,-0.698,-0.6982,-0.6984,-0.6983,-0.6964,-0.6964,-0.6958,-0.6958,-0.6958]}]]